Time,TemperatureF,DewpointF,PressureIn,WindDirection,WindDirectionDegrees,WindSpeedMPH,WindSpeedGustMPH,Humidity,HourlyPrecipIn,Conditions,Clouds,dailyrainin,SolarRadiationWatts/m^2,SoftwareType,DateUTC
2013-04-19 00:03:00,35.8,22.9,30.20,NNE,24,5.0,5.0,59,0.00,,,0.00,0,Wunderground v.1.15,2013-04-19 06:03:00,
2013-04-19 00:08:00,35.8,22.5,30.20,NNE,30,2.0,5.0,58,0.00,,,0.00,0,Wunderground v.1.15,2013-04-19 06:08:00,
2013-04-19 00:13:00,35.9,22.5,30.20,North,5,1.0,4.0,58,0.00,,,0.00,0,Wunderground v.1.15,2013-04-19 06:13:00,
2013-04-19 00:19:00,36.2,22.8,30.20,SSE,168,1.0,3.0,58,0.00,,,0.00,0,Wunderground v.1.15,2013-04-19 06:19:00,
2013-04-19 00:25:00,36.2,22.8,30.20,East,82,2.0,3.0,58,0.00,,,0.00,0,Wunderground v.1.15,2013-04-19 06:25:00,
2013-04-19 00:30:00,35.9,22.5,30.20,NNE,18,3.0,3.0,58,0.00,,,0.00,0,Wunderground v.1.15,2013-04-19 06:30:00,
2013-04-19 00:35:00,35.7,22.4,30.19,North,350,3.0,5.0,58,0.00,,,0.00,0,Wunderground v.1.15,2013-04-19 06:35:00,
2013-04-19 00:41:00,35.6,22.3,30.19,North,350,1.0,3.0,58,0.00,,,0.00,0,Wunderground v.1.15,2013-04-19 06:41:00,
2013-04-19 00:46:00,35.5,22.6,30.19,North,351,0.0,3.0,59,0.00,,,0.00,0,Wunderground v.1.15,2013-04-19 06:46:00,
2013-04-19 00:51:00,35.1,22.2,30.19,NW,326,2.0,3.0,59,0.00,,,0.00,0,Wunderground v.1.15,2013-04-19 06:51:00,
2013-04-19 00:56:00,34.5,21.6,30.19,WNW,295,0.0,4.0,59,0.00,,,0.00,0,Wunderground v.1.15,2013-04-19 06:56:00,
2013-04-19 01:02:00,34.3,21.8,30.18,WNW,295,0.0,2.0,60,0.00,,,0.00,0,Wunderground v.1.15,2013-04-19 07:02:00,
2013-04-19 01:08:00,33.5,21.1,30.18,WNW,295,0.0,2.0,60,0.00,,,0.00,0,Wunderground v.1.15,2013-04-19 07:08:00,
2013-04-19 01:13:00,32.7,20.3,30.18,WNW,295,2.0,3.0,60,0.00,,,0.00,0,Wunderground v.1.15,2013-04-19 07:13:00,
2013-04-19 01:20:00,31.0,19.9,30.18,WNW,291,3.0,3.0,63,0.00,,,0.00,0,Wunderground v.1.15,2013-04-19 07:20:00,
2013-04-19 01:25:00,31.0,20.6,30.18,SW,221,5.0,5.0,65,0.00,,,0.00,0,Wunderground v.1.15,2013-04-19 07:25:00,
2013-04-19 01:31:00,31.7,21.3,30.18,WNW,288,5.0,5.0,65,0.00,,,0.00,0,Wunderground v.1.15,2013-04-19 07:31:00,
2013-04-19 01:37:00,31.7,21.3,30.18,WNW,287,2.0,5.0,65,0.00,,,0.00,0,Wunderground v.1.15,2013-04-19 07:37:00,
2013-04-19 01:43:00,32.5,22.0,30.18,SW,234,4.0,4.0,65,0.00,,,0.00,0,Wunderground v.1.15,2013-04-19 07:43:00,
2013-04-19 01:49:00,32.6,21.8,30.17,SW,235,6.0,6.0,64,0.00,,,0.00,0,Wunderground v.1.15,2013-04-19 07:49:00,
2013-04-19 01:54:00,33.1,22.2,30.17,WSW,242,2.0,7.0,64,0.00,,,0.00,0,Wunderground v.1.15,2013-04-19 07:54:00,
2013-04-19 01:59:00,33.5,22.2,30.17,WSW,237,4.0,4.0,63,0.00,,,0.00,0,Wunderground v.1.15,2013-04-19 07:59:00,
2013-04-19 02:05:00,33.9,22.6,30.16,SSE,153,5.0,9.0,63,0.00,,,0.00,0,Wunderground v.1.15,2013-04-19 08:05:00,
2013-04-19 02:10:00,34.0,22.7,30.16,SSE,168,4.0,5.0,63,0.00,,,0.00,0,Wunderground v.1.15,2013-04-19 08:10:00,
2013-04-19 02:15:00,34.1,22.4,30.15,WSW,257,3.0,8.0,62,0.00,,,0.00,0,Wunderground v.1.15,2013-04-19 08:15:00,
2013-04-19 02:20:00,34.3,22.6,30.15,SSW,195,0.0,4.0,62,0.00,,,0.00,0,Wunderground v.1.15,2013-04-19 08:20:00,
2013-04-19 02:25:00,34.4,22.7,30.15,SE,128,0.0,6.0,62,0.00,,,0.00,0,Wunderground v.1.15,2013-04-19 08:25:00,
2013-04-19 02:30:00,34.4,22.7,30.15,SW,219,2.0,5.0,62,0.00,,,0.00,0,Wunderground v.1.15,2013-04-19 08:30:00,
2013-04-19 02:35:00,34.7,23.0,30.15,SE,129,5.0,6.0,62,0.00,,,0.00,0,Wunderground v.1.15,2013-04-19 08:35:00,
2013-04-19 02:40:00,34.3,22.6,30.15,SE,136,0.0,4.0,62,0.00,,,0.00,0,Wunderground v.1.15,2013-04-19 08:40:00,
2013-04-19 02:45:00,33.7,22.4,30.14,SSW,192,5.0,5.0,63,0.00,,,0.00,0,Wunderground v.1.15,2013-04-19 08:45:00,
2013-04-19 02:50:00,32.9,22.0,30.14,SSE,148,4.0,6.0,64,0.00,,,0.00,0,Wunderground v.1.15,2013-04-19 08:50:00,
2013-04-19 02:55:00,32.5,22.0,30.14,SW,223,1.0,6.0,65,0.00,,,0.00,0,Wunderground v.1.15,2013-04-19 08:55:00,
2013-04-19 03:00:00,32.6,22.1,30.13,SW,222,4.0,4.0,65,0.00,,,0.00,0,Wunderground v.1.15,2013-04-19 09:00:00,
2013-04-19 03:05:00,32.6,22.1,30.13,SSW,201,4.0,8.0,65,0.00,,,0.00,0,Wunderground v.1.15,2013-04-19 09:05:00,
2013-04-19 03:10:00,32.6,22.1,30.13,SSW,207,1.0,3.0,65,0.00,,,0.00,0,Wunderground v.1.15,2013-04-19 09:10:00,
2013-04-19 03:15:00,32.6,22.1,30.12,SSW,206,0.0,4.0,65,0.00,,,0.00,0,Wunderground v.1.15,2013-04-19 09:15:00,
2013-04-19 03:20:00,32.6,22.5,30.12,SSW,199,2.0,4.0,66,0.00,,,0.00,0,Wunderground v.1.15,2013-04-19 09:20:00,
2013-04-19 03:25:00,32.8,22.3,30.12,SSW,198,0.0,4.0,65,0.00,,,0.00,0,Wunderground v.1.15,2013-04-19 09:25:00,
2013-04-19 03:30:00,32.9,22.8,30.11,SSW,197,0.0,1.0,66,0.00,,,0.00,0,Wunderground v.1.15,2013-04-19 09:30:00,
2013-04-19 03:35:00,33.3,22.4,30.11,South,186,0.0,8.0,64,0.00,,,0.00,0,Wunderground v.1.15,2013-04-19 09:35:00,
2013-04-19 03:40:00,33.7,22.4,30.11,SSE,165,0.0,5.0,63,0.00,,,0.00,0,Wunderground v.1.15,2013-04-19 09:40:00,
2013-04-19 03:45:00,33.9,22.6,30.10,SSE,155,2.0,9.0,63,0.00,,,0.00,0,Wunderground v.1.15,2013-04-19 09:45:00,
2013-04-19 03:50:00,33.9,22.6,30.10,South,190,0.0,5.0,63,0.00,,,0.00,0,Wunderground v.1.15,2013-04-19 09:50:00,
2013-04-19 03:55:00,33.9,22.6,30.10,South,189,0.0,5.0,63,0.00,,,0.00,0,Wunderground v.1.15,2013-04-19 09:55:00,
2013-04-19 04:01:00,33.9,22.6,30.10,South,190,0.0,3.0,63,0.00,,,0.00,0,Wunderground v.1.15,2013-04-19 10:01:00,
2013-04-19 04:06:00,34.1,22.8,30.10,South,190,0.0,3.0,63,0.00,,,0.00,0,Wunderground v.1.15,2013-04-19 10:06:00,
2013-04-19 04:11:00,34.2,22.9,30.10,South,190,0.0,0.0,63,0.00,,,0.00,0,Wunderground v.1.15,2013-04-19 10:11:00,
2013-04-19 04:16:00,34.4,23.1,30.09,South,190,0.0,3.0,63,0.00,,,0.00,0,Wunderground v.1.15,2013-04-19 10:16:00,
2013-04-19 04:21:00,34.4,22.7,30.09,South,190,5.0,5.0,62,0.00,,,0.00,0,Wunderground v.1.15,2013-04-19 10:21:00,
2013-04-19 04:26:00,34.4,23.1,30.09,South,190,0.0,5.0,63,0.00,,,0.00,0,Wunderground v.1.15,2013-04-19 10:26:00,
2013-04-19 04:31:00,34.1,22.8,30.08,South,188,0.0,1.0,63,0.00,,,0.00,0,Wunderground v.1.15,2013-04-19 10:31:00,
2013-04-19 04:36:00,33.7,22.8,30.08,South,190,0.0,1.0,64,0.00,,,0.00,0,Wunderground v.1.15,2013-04-19 10:36:00,
2013-04-19 04:41:00,33.2,22.3,30.08,South,190,0.0,0.0,64,0.00,,,0.00,0,Wunderground v.1.15,2013-04-19 10:41:00,
2013-04-19 04:46:00,33.0,22.5,30.08,South,190,0.0,0.0,65,0.00,,,0.00,0,Wunderground v.1.15,2013-04-19 10:46:00,
2013-04-19 04:51:00,33.0,22.5,30.08,South,190,0.0,0.0,65,0.00,,,0.00,0,Wunderground v.1.15,2013-04-19 10:51:00,
2013-04-19 04:56:00,33.0,22.9,30.08,South,189,0.0,0.0,66,0.00,,,0.00,0,Wunderground v.1.15,2013-04-19 10:56:00,
2013-04-19 05:01:00,33.1,23.0,30.07,South,190,0.0,0.0,66,0.00,,,0.00,0,Wunderground v.1.15,2013-04-19 11:01:00,
2013-04-19 05:06:00,33.2,22.7,30.07,South,189,0.0,0.0,65,0.00,,,0.00,0,Wunderground v.1.15,2013-04-19 11:06:00,
2013-04-19 05:11:00,33.1,22.6,30.07,South,190,0.0,0.0,65,0.00,,,0.00,0,Wunderground v.1.15,2013-04-19 11:11:00,
2013-04-19 05:16:00,33.2,23.1,30.06,South,190,0.0,0.0,66,0.00,,,0.00,0,Wunderground v.1.15,2013-04-19 11:16:00,
2013-04-19 05:21:00,33.3,23.2,30.06,South,190,0.0,0.0,66,0.00,,,0.00,0,Wunderground v.1.15,2013-04-19 11:21:00,
2013-04-19 05:26:00,33.3,22.8,30.06,South,188,0.0,0.0,65,0.00,,,0.00,0,Wunderground v.1.15,2013-04-19 11:26:00,
2013-04-19 05:31:00,33.1,23.0,30.05,South,190,0.0,0.0,66,0.00,,,0.00,0,Wunderground v.1.15,2013-04-19 11:31:00,
2013-04-19 05:36:00,33.0,22.9,30.05,South,190,0.0,0.0,66,0.00,,,0.00,0,Wunderground v.1.15,2013-04-19 11:36:00,
2013-04-19 05:42:00,32.9,23.1,30.05,South,190,0.0,0.0,67,0.00,,,0.00,0,Wunderground v.1.15,2013-04-19 11:42:00,
2013-04-19 05:47:00,32.8,22.7,30.04,South,189,0.0,0.0,66,0.00,,,0.00,0,Wunderground v.1.15,2013-04-19 11:47:00,
2013-04-19 05:52:00,32.8,23.0,30.04,South,190,0.0,0.0,67,0.00,,,0.00,0,Wunderground v.1.15,2013-04-19 11:52:00,
2013-04-19 05:57:00,32.7,22.9,30.04,South,190,0.0,0.0,67,0.00,,,0.00,0,Wunderground v.1.15,2013-04-19 11:57:00,
2013-04-19 06:02:00,32.7,22.9,30.03,South,190,0.0,1.0,67,0.00,,,0.00,0,Wunderground v.1.15,2013-04-19 12:02:00,
2013-04-19 06:07:00,32.7,22.9,30.03,South,190,0.0,1.0,67,0.00,,,0.00,0,Wunderground v.1.15,2013-04-19 12:07:00,
2013-04-19 06:12:00,32.7,22.9,30.03,South,188,0.0,0.0,67,0.00,,,0.00,0,Wunderground v.1.15,2013-04-19 12:12:00,
2013-04-19 06:17:00,32.8,23.4,30.03,South,190,0.0,0.0,68,0.00,,,0.00,0,Wunderground v.1.15,2013-04-19 12:17:00,
2013-04-19 06:22:00,32.9,23.8,30.03,South,189,0.0,0.0,69,0.00,,,0.00,0,Wunderground v.1.15,2013-04-19 12:22:00,
2013-04-19 06:27:00,32.9,23.5,30.03,South,190,0.0,0.0,68,0.00,,,0.00,0,Wunderground v.1.15,2013-04-19 12:27:00,
2013-04-19 06:32:00,32.9,23.5,30.02,South,188,0.0,0.0,68,0.00,,,0.00,0,Wunderground v.1.15,2013-04-19 12:32:00,
2013-04-19 06:37:00,32.9,23.5,30.02,South,190,0.0,0.0,68,0.00,,,0.00,0,Wunderground v.1.15,2013-04-19 12:37:00,
2013-04-19 06:42:00,32.9,23.5,30.02,South,190,0.0,0.0,68,0.00,,,0.00,0,Wunderground v.1.15,2013-04-19 12:42:00,
2013-04-19 06:47:00,33.0,23.6,30.02,South,188,0.0,0.0,68,0.00,,,0.00,0,Wunderground v.1.15,2013-04-19 12:47:00,
2013-04-19 06:52:00,33.0,23.6,30.02,South,190,2.0,2.0,68,0.00,,,0.00,0,Wunderground v.1.15,2013-04-19 12:52:00,
2013-04-19 06:57:00,33.0,23.6,30.02,South,190,0.0,3.0,68,0.00,,,0.00,0,Wunderground v.1.15,2013-04-19 12:57:00,
2013-04-19 07:02:00,32.9,23.5,30.01,South,190,0.0,0.0,68,0.00,,,0.00,0,Wunderground v.1.15,2013-04-19 13:02:00,
2013-04-19 07:07:00,32.8,23.7,30.01,South,190,0.0,0.0,69,0.00,,,0.00,0,Wunderground v.1.15,2013-04-19 13:07:00,
2013-04-19 07:12:00,32.8,23.7,30.01,South,190,0.0,0.0,69,0.00,,,0.00,5,Wunderground v.1.15,2013-04-19 13:12:00,
2013-04-19 07:17:00,32.8,23.4,30.01,South,189,0.0,0.0,68,0.00,,,0.00,7,Wunderground v.1.15,2013-04-19 13:17:00,
2013-04-19 07:22:00,32.9,23.8,30.01,South,190,0.0,0.0,69,0.00,,,0.00,9,Wunderground v.1.15,2013-04-19 13:22:00,
2013-04-19 07:27:00,33.0,23.9,30.01,South,190,0.0,0.0,69,0.00,,,0.00,12,Wunderground v.1.15,2013-04-19 13:27:00,
2013-04-19 07:32:00,33.1,24.0,30.00,South,188,0.0,0.0,69,0.00,,,0.00,16,Wunderground v.1.15,2013-04-19 13:32:00,
2013-04-19 07:37:00,33.2,23.8,30.00,South,190,2.0,2.0,68,0.00,,,0.00,21,Wunderground v.1.15,2013-04-19 13:37:00,
2013-04-19 07:42:00,33.3,23.9,30.00,South,190,0.0,1.0,68,0.00,,,0.00,40,Wunderground v.1.15,2013-04-19 13:42:00,
2013-04-19 07:47:00,33.6,23.8,29.99,South,189,0.0,1.0,67,0.00,,,0.00,49,Wunderground v.1.15,2013-04-19 13:47:00,
2013-04-19 07:52:00,34.1,24.6,29.99,South,188,0.0,0.0,68,0.00,,,0.00,70,Wunderground v.1.15,2013-04-19 13:52:00,
2013-04-19 07:57:00,34.4,24.6,29.99,South,190,0.0,4.0,67,0.00,,,0.00,97,Wunderground v.1.15,2013-04-19 13:57:00,
2013-04-19 08:02:00,34.7,24.9,29.99,South,190,1.0,2.0,67,0.00,,,0.00,105,Wunderground v.1.15,2013-04-19 14:02:00,
2013-04-19 08:07:00,35.1,25.2,29.99,SSW,192,2.0,3.0,67,0.00,,,0.00,102,Wunderground v.1.15,2013-04-19 14:07:00,
2013-04-19 08:12:00,35.4,25.2,29.99,SSW,192,3.0,3.0,66,0.00,,,0.00,70,Wunderground v.1.15,2013-04-19 14:12:00,
2013-04-19 08:17:00,35.3,25.1,29.98,SSW,192,0.0,4.0,66,0.00,,,0.00,63,Wunderground v.1.15,2013-04-19 14:17:00,
2013-04-19 08:22:00,35.5,25.6,29.98,SSW,192,0.0,1.0,67,0.00,,,0.00,65,Wunderground v.1.15,2013-04-19 14:22:00,
2013-04-19 08:27:00,35.6,25.4,29.98,SSW,192,0.0,2.0,66,0.00,,,0.00,53,Wunderground v.1.15,2013-04-19 14:27:00,
2013-04-19 08:32:00,35.9,25.6,29.97,SSW,192,0.0,0.0,66,0.00,,,0.00,42,Wunderground v.1.15,2013-04-19 14:32:00,
2013-04-19 08:37:00,36.1,25.8,29.97,SSW,192,0.0,0.0,66,0.00,,,0.00,62,Wunderground v.1.15,2013-04-19 14:37:00,
2013-04-19 08:42:00,36.2,25.9,29.97,SW,216,0.0,4.0,66,0.00,,,0.00,63,Wunderground v.1.15,2013-04-19 14:42:00,
2013-04-19 08:47:00,36.4,26.1,29.96,SW,215,0.0,4.0,66,0.00,,,0.00,84,Wunderground v.1.15,2013-04-19 14:47:00,
2013-04-19 08:52:00,36.7,26.4,29.96,SW,216,2.0,2.0,66,0.00,,,0.00,81,Wunderground v.1.15,2013-04-19 14:52:00,
2013-04-19 08:57:00,36.9,26.6,29.96,SW,217,2.0,4.0,66,0.00,,,0.00,98,Wunderground v.1.15,2013-04-19 14:57:00,
2013-04-19 09:02:00,37.1,26.8,29.95,SW,218,0.0,1.0,66,0.00,,,0.00,123,Wunderground v.1.15,2013-04-19 15:02:00,
2013-04-19 09:07:00,37.4,26.7,29.95,SW,219,0.0,3.0,65,0.00,,,0.00,100,Wunderground v.1.15,2013-04-19 15:07:00,
2013-04-19 09:12:00,37.7,26.6,29.95,SW,219,0.0,0.0,64,0.00,,,0.00,81,Wunderground v.1.15,2013-04-19 15:12:00,
2013-04-19 09:17:00,37.9,26.8,29.94,SW,219,0.0,0.0,64,0.00,,,0.00,81,Wunderground v.1.15,2013-04-19 15:17:00,
2013-04-19 09:22:00,38.4,27.3,29.94,SW,229,0.0,5.0,64,0.00,,,0.00,84,Wunderground v.1.15,2013-04-19 15:22:00,
2013-04-19 09:27:00,38.7,27.2,29.94,WSW,252,0.0,5.0,63,0.00,,,0.00,97,Wunderground v.1.15,2013-04-19 15:27:00,
2013-04-19 09:32:00,39.1,27.6,29.93,North,355,0.0,5.0,63,0.00,,,0.00,88,Wunderground v.1.15,2013-04-19 15:32:00,
2013-04-19 09:38:00,39.3,27.4,29.93,North,355,0.0,5.0,62,0.00,,,0.00,83,Wunderground v.1.15,2013-04-19 15:38:00,
2013-04-19 09:43:00,39.4,27.5,29.93,North,355,0.0,4.0,62,0.00,,,0.00,104,Wunderground v.1.15,2013-04-19 15:43:00,
2013-04-19 09:48:00,39.7,27.3,29.92,North,355,0.0,4.0,61,0.00,,,0.00,153,Wunderground v.1.15,2013-04-19 15:48:00,
2013-04-19 09:53:00,40.0,27.6,29.92,NNE,30,2.0,9.0,61,0.00,,,0.00,160,Wunderground v.1.15,2013-04-19 15:53:00,
2013-04-19 09:58:00,40.6,27.8,29.92,NNW,336,8.0,9.0,60,0.00,,,0.00,171,Wunderground v.1.15,2013-04-19 15:58:00,
2013-04-19 10:03:00,40.7,27.9,29.92,NNE,18,4.0,7.0,60,0.00,,,0.00,171,Wunderground v.1.15,2013-04-19 16:03:00,
2013-04-19 10:08:00,40.9,27.7,29.92,NNW,344,5.0,9.0,59,0.00,,,0.00,162,Wunderground v.1.15,2013-04-19 16:08:00,
2013-04-19 10:13:00,41.1,27.9,29.92,North,5,3.0,7.0,59,0.00,,,0.00,167,Wunderground v.1.15,2013-04-19 16:13:00,
2013-04-19 10:18:00,41.1,27.9,29.91,NNW,344,4.0,7.0,59,0.00,,,0.00,181,Wunderground v.1.15,2013-04-19 16:18:00,
2013-04-19 10:23:00,41.3,28.0,29.91,North,355,4.0,6.0,59,0.00,,,0.00,202,Wunderground v.1.15,2013-04-19 16:23:00,
2013-04-19 10:28:00,41.6,28.3,29.91,North,349,2.0,6.0,59,0.00,,,0.00,206,Wunderground v.1.15,2013-04-19 16:28:00,
2013-04-19 10:33:00,42.1,28.4,29.90,North,9,4.0,5.0,58,0.00,,,0.00,211,Wunderground v.1.15,2013-04-19 16:33:00,
2013-04-19 10:38:00,42.4,28.7,29.90,NNE,15,2.0,8.0,58,0.00,,,0.00,237,Wunderground v.1.15,2013-04-19 16:38:00,
2013-04-19 10:43:00,42.8,29.0,29.90,NNE,29,4.0,5.0,58,0.00,,,0.00,257,Wunderground v.1.15,2013-04-19 16:43:00,
2013-04-19 10:48:00,43.3,29.1,29.89,NNE,28,2.0,5.0,57,0.00,,,0.00,246,Wunderground v.1.15,2013-04-19 16:48:00,
2013-04-19 10:53:00,43.5,29.3,29.89,NNE,28,1.0,6.0,57,0.00,,,0.00,309,Wunderground v.1.15,2013-04-19 16:53:00,
2013-04-19 10:58:00,43.9,29.6,29.89,NNE,26,4.0,6.0,57,0.00,,,0.00,408,Wunderground v.1.15,2013-04-19 16:58:00,
2013-04-19 11:03:00,44.6,29.9,29.89,NNE,25,0.0,4.0,56,0.00,,,0.00,425,Wunderground v.1.15,2013-04-19 17:03:00,
2013-04-19 11:08:00,45.1,29.9,29.89,NNE,25,4.0,5.0,55,0.00,,,0.00,369,Wunderground v.1.15,2013-04-19 17:08:00,
2013-04-19 11:13:00,46.0,31.2,29.89,NNE,15,4.0,9.0,56,0.00,,,0.00,390,Wunderground v.1.15,2013-04-19 17:13:00,
2013-04-19 11:18:00,46.4,30.2,29.87,NNE,25,2.0,9.0,53,0.00,,,0.00,454,Wunderground v.1.15,2013-04-19 17:18:00,
2013-04-19 11:23:00,46.7,30.9,29.87,NNE,25,0.0,3.0,54,0.00,,,0.00,388,Wunderground v.1.15,2013-04-19 17:23:00,
2013-04-19 11:28:00,47.3,31.0,29.87,NNE,32,2.0,6.0,53,0.00,,,0.00,364,Wunderground v.1.15,2013-04-19 17:28:00,
2013-04-19 11:33:00,47.7,31.4,29.87,NNE,22,4.0,6.0,53,0.00,,,0.00,411,Wunderground v.1.15,2013-04-19 17:33:00,
2013-04-19 11:38:00,48.2,31.4,29.87,NNE,29,0.0,6.0,52,0.00,,,0.00,387,Wunderground v.1.15,2013-04-19 17:38:00,
2013-04-19 11:43:00,48.8,31.5,29.87,NE,45,0.0,5.0,51,0.00,,,0.00,367,Wunderground v.1.15,2013-04-19 17:43:00,
2013-04-19 11:48:00,49.1,31.7,29.86,NE,44,0.0,5.0,51,0.00,,,0.00,309,Wunderground v.1.15,2013-04-19 17:48:00,
2013-04-19 11:53:00,49.2,31.3,29.86,NE,45,0.0,1.0,50,0.00,,,0.00,227,Wunderground v.1.15,2013-04-19 17:53:00,
2013-04-19 11:58:00,49.0,31.2,29.86,ENE,59,0.0,4.0,50,0.00,,,0.00,202,Wunderground v.1.15,2013-04-19 17:58:00,
2013-04-19 12:03:00,49.0,31.2,29.85,ENE,59,0.0,2.0,50,0.00,,,0.00,206,Wunderground v.1.15,2013-04-19 18:03:00,
2013-04-19 12:08:00,49.0,31.2,29.85,ENE,59,0.0,2.0,50,0.00,,,0.00,243,Wunderground v.1.15,2013-04-19 18:08:00,
2013-04-19 12:13:00,49.2,31.8,29.85,NE,45,1.0,6.0,51,0.00,,,0.00,262,Wunderground v.1.15,2013-04-19 18:13:00,
2013-04-19 12:18:00,49.4,31.5,29.85,NNW,337,6.0,11.0,50,0.00,,,0.00,311,Wunderground v.1.15,2013-04-19 18:18:00,
2013-04-19 12:23:00,49.5,31.6,29.85,NNW,341,5.0,10.0,50,0.00,,,0.00,287,Wunderground v.1.15,2013-04-19 18:23:00,
2013-04-19 12:28:00,49.1,31.7,29.85,NNW,335,8.0,11.0,51,0.00,,,0.00,285,Wunderground v.1.15,2013-04-19 18:28:00,
2013-04-19 12:33:00,48.6,31.3,29.85,NNW,340,6.0,11.0,51,0.00,,,0.00,257,Wunderground v.1.15,2013-04-19 18:33:00,
2013-04-19 12:38:00,48.8,32.4,29.85,NNE,12,2.0,11.0,53,0.00,,,0.00,267,Wunderground v.1.15,2013-04-19 18:38:00,
2013-04-19 12:43:00,48.9,32.0,29.85,NNE,18,4.0,8.0,52,0.00,,,0.00,246,Wunderground v.1.15,2013-04-19 18:43:00,
2013-04-19 12:48:00,48.8,31.5,29.85,North,11,5.0,11.0,51,0.00,,,0.00,288,Wunderground v.1.15,2013-04-19 18:48:00,
2013-04-19 12:53:00,48.6,31.8,29.85,North,355,3.0,10.0,52,0.00,,,0.00,325,Wunderground v.1.15,2013-04-19 18:53:00,
2013-04-19 12:58:00,48.5,31.7,29.85,NNW,346,4.0,10.0,52,0.00,,,0.00,315,Wunderground v.1.15,2013-04-19 18:58:00,
2013-04-19 13:04:00,48.5,32.1,29.84,NE,34,5.0,9.0,53,0.00,,,0.00,320,Wunderground v.1.15,2013-04-19 19:04:00,
2013-04-19 13:09:00,48.7,31.8,29.84,NE,34,2.0,9.0,52,0.00,,,0.00,306,Wunderground v.1.15,2013-04-19 19:09:00,
2013-04-19 13:14:00,49.1,32.7,29.84,NNE,32,2.0,5.0,53,0.00,,,0.00,262,Wunderground v.1.15,2013-04-19 19:14:00,
2013-04-19 13:19:00,49.2,31.8,29.83,NE,36,1.0,6.0,51,0.00,,,0.00,246,Wunderground v.1.15,2013-04-19 19:19:00,
2013-04-19 13:24:00,49.0,32.1,29.83,NNE,17,4.0,9.0,52,0.00,,,0.00,253,Wunderground v.1.15,2013-04-19 19:24:00,
2013-04-19 13:29:00,49.2,32.3,29.83,NNE,18,2.0,9.0,52,0.00,,,0.00,250,Wunderground v.1.15,2013-04-19 19:29:00,
2013-04-19 13:34:00,49.4,32.5,29.82,NNE,30,4.0,8.0,52,0.00,,,0.00,239,Wunderground v.1.15,2013-04-19 19:34:00,
2013-04-19 13:39:00,49.5,32.6,29.82,NNE,28,2.0,10.0,52,0.00,,,0.00,269,Wunderground v.1.15,2013-04-19 19:39:00,
2013-04-19 13:44:00,49.5,32.1,29.82,NE,37,5.0,6.0,51,0.00,,,0.00,306,Wunderground v.1.15,2013-04-19 19:44:00,
2013-04-19 13:49:00,49.6,32.7,29.81,NE,45,6.0,8.0,52,0.00,,,0.00,279,Wunderground v.1.15,2013-04-19 19:49:00,
2013-04-19 13:54:00,49.7,32.3,29.81,NNW,344,3.0,8.0,51,0.00,,,0.00,262,Wunderground v.1.15,2013-04-19 19:54:00,
2013-04-19 13:59:00,49.9,32.5,29.81,NNE,14,2.0,8.0,51,0.00,,,0.00,329,Wunderground v.1.15,2013-04-19 19:59:00,
2013-04-19 14:04:00,50.6,32.6,29.80,NNE,14,2.0,5.0,50,0.00,,,0.00,403,Wunderground v.1.15,2013-04-19 20:04:00,
2013-04-19 14:09:00,51.3,32.8,29.80,NNE,14,2.0,2.0,49,0.00,,,0.00,448,Wunderground v.1.15,2013-04-19 20:09:00,
2013-04-19 14:14:00,51.9,32.8,29.80,NNE,33,3.0,6.0,48,0.00,,,0.00,506,Wunderground v.1.15,2013-04-19 20:14:00,
2013-04-19 14:20:00,52.2,32.6,29.80,NNE,33,0.0,3.0,47,0.00,,,0.00,519,Wunderground v.1.15,2013-04-19 20:20:00,
2013-04-19 14:25:00,53.1,33.4,29.80,NNE,33,0.0,3.0,47,0.00,,,0.00,575,Wunderground v.1.15,2013-04-19 20:25:00,
2013-04-19 14:30:00,53.3,33.0,29.79,East,85,3.0,3.0,46,0.00,,,0.00,526,Wunderground v.1.15,2013-04-19 20:30:00,
2013-04-19 14:35:00,53.2,31.8,29.79,East,90,0.0,7.0,44,0.00,,,0.00,438,Wunderground v.1.15,2013-04-19 20:35:00,
2013-04-19 14:40:00,52.7,31.9,29.79,East,82,0.0,2.0,45,0.00,,,0.00,359,Wunderground v.1.15,2013-04-19 20:40:00,
2013-04-19 14:45:00,52.3,31.6,29.79,ESE,105,0.0,7.0,45,0.00,,,0.00,306,Wunderground v.1.15,2013-04-19 20:45:00,
2013-04-19 14:50:00,52.2,32.0,29.79,ESE,105,0.0,1.0,46,0.00,,,0.00,341,Wunderground v.1.15,2013-04-19 20:50:00,
2013-04-19 14:55:00,52.3,32.6,29.79,ESE,105,0.0,1.0,47,0.00,,,0.00,462,Wunderground v.1.15,2013-04-19 20:55:00,
2013-04-19 15:00:00,52.8,32.0,29.78,WSW,247,5.0,5.0,45,0.00,,,0.00,531,Wunderground v.1.15,2013-04-19 21:00:00,
2013-04-19 15:05:00,53.6,32.8,29.78,WNW,302,8.0,9.0,45,0.00,,,0.00,369,Wunderground v.1.15,2013-04-19 21:05:00,
2013-04-19 15:10:00,53.4,32.0,29.78,WNW,285,10.0,15.0,44,0.00,,,0.00,274,Wunderground v.1.15,2013-04-19 21:10:00,
2013-04-19 15:15:00,52.8,32.0,29.78,WSW,248,11.0,16.0,45,0.00,,,0.00,237,Wunderground v.1.15,2013-04-19 21:15:00,
2013-04-19 15:20:00,52.2,32.0,29.78,West,267,6.0,11.0,46,0.00,,,0.00,199,Wunderground v.1.15,2013-04-19 21:20:00,
2013-04-19 15:25:00,51.7,32.6,29.78,West,267,2.0,15.0,48,0.00,,,0.00,172,Wunderground v.1.15,2013-04-19 21:25:00,
2013-04-19 15:30:00,51.1,32.6,29.79,WSW,254,4.0,9.0,49,0.00,,,0.00,178,Wunderground v.1.15,2013-04-19 21:30:00,
2013-04-19 15:35:00,51.0,32.5,29.79,WNW,290,13.0,15.0,49,0.00,,,0.00,185,Wunderground v.1.15,2013-04-19 21:35:00,
2013-04-19 15:40:00,50.9,32.4,29.79,WNW,301,11.0,13.0,49,0.00,,,0.00,225,Wunderground v.1.15,2013-04-19 21:40:00,
2013-04-19 15:45:00,50.4,34.4,29.78,NNW,334,13.0,20.0,54,0.00,,,0.00,239,Wunderground v.1.15,2013-04-19 21:45:00,
2013-04-19 15:50:00,50.0,34.5,29.78,NW,311,11.0,19.0,55,0.00,,,0.00,267,Wunderground v.1.15,2013-04-19 21:50:00,
2013-04-19 15:55:00,49.9,34.8,29.78,NNW,344,20.0,20.0,56,0.00,,,0.00,309,Wunderground v.1.15,2013-04-19 21:55:00,
2013-04-19 16:00:00,49.6,35.0,29.78,North,350,12.0,18.0,57,0.00,,,0.00,352,Wunderground v.1.15,2013-04-19 22:00:00,
2013-04-19 16:05:00,49.8,35.2,29.78,NNW,338,10.0,18.0,57,0.00,,,0.00,369,Wunderground v.1.15,2013-04-19 22:05:00,
2013-04-19 16:10:00,50.1,35.0,29.78,NW,314,15.0,17.0,56,0.00,,,0.00,334,Wunderground v.1.15,2013-04-19 22:10:00,
2013-04-19 16:15:00,50.1,35.0,29.78,North,350,12.0,21.0,56,0.00,,,0.00,330,Wunderground v.1.15,2013-04-19 22:15:00,
2013-04-19 16:20:00,49.4,35.2,29.78,North,350,13.0,20.0,58,0.00,,,0.00,287,Wunderground v.1.15,2013-04-19 22:20:00,
2013-04-19 16:25:00,49.0,35.7,29.78,NW,317,15.0,20.0,60,0.00,,,0.00,373,Wunderground v.1.15,2013-04-19 22:25:00,
2013-04-19 16:30:00,48.9,36.4,29.79,WNW,292,10.0,15.0,62,0.00,,,0.00,422,Wunderground v.1.15,2013-04-19 22:30:00,
2013-04-19 16:35:00,48.9,36.4,29.79,NNW,330,17.0,20.0,62,0.00,,,0.00,383,Wunderground v.1.15,2013-04-19 22:35:00,
2013-04-19 16:40:00,49.0,36.1,29.79,NW,319,11.0,14.0,61,0.00,,,0.00,318,Wunderground v.1.15,2013-04-19 22:40:00,
2013-04-19 16:45:00,49.0,35.7,29.79,WNW,286,10.0,20.0,60,0.00,,,0.00,230,Wunderground v.1.15,2013-04-19 22:45:00,
2013-04-19 16:50:00,48.6,36.2,29.79,NW,315,9.0,16.0,62,0.00,,,0.00,221,Wunderground v.1.15,2013-04-19 22:50:00,
2013-04-19 16:55:00,48.1,36.5,29.79,WNW,291,9.0,19.0,64,0.00,,,0.00,225,Wunderground v.1.15,2013-04-19 22:55:00,
2013-04-19 17:00:00,47.7,36.9,29.79,NW,318,13.0,19.0,66,0.00,,,0.00,343,Wunderground v.1.15,2013-04-19 23:00:00,
2013-04-19 17:05:00,47.5,37.5,29.79,NNW,329,8.0,19.0,68,0.00,,,0.00,334,Wunderground v.1.15,2013-04-19 23:05:00,
2013-04-19 17:10:00,47.4,37.0,29.79,NNW,338,4.0,16.0,67,0.00,,,0.00,274,Wunderground v.1.15,2013-04-19 23:10:00,
2013-04-19 17:15:00,47.3,36.9,29.79,NW,318,12.0,18.0,67,0.00,,,0.00,214,Wunderground v.1.15,2013-04-19 23:15:00,
2013-04-19 17:20:00,47.0,37.0,29.79,NNW,337,6.0,12.0,68,0.00,,,0.00,190,Wunderground v.1.15,2013-04-19 23:20:00,
2013-04-19 17:25:00,47.2,37.5,29.79,NNW,330,8.0,13.0,69,0.00,,,0.00,181,Wunderground v.1.15,2013-04-19 23:25:00,
2013-04-19 17:31:00,47.3,38.4,29.80,NW,314,12.0,12.0,71,0.00,,,0.00,306,Wunderground v.1.15,2013-04-19 23:31:00,
2013-04-19 17:36:00,47.9,37.8,29.80,NNW,339,8.0,14.0,68,0.00,,,0.00,364,Wunderground v.1.15,2013-04-19 23:36:00,
2013-04-19 17:41:00,48.7,37.1,29.80,NNW,331,3.0,9.0,64,0.00,,,0.00,313,Wunderground v.1.15,2013-04-19 23:41:00,
2013-04-19 17:46:00,48.9,36.9,29.80,NNW,345,8.0,12.0,63,0.00,,,0.00,211,Wunderground v.1.15,2013-04-19 23:46:00,
2013-04-19 17:51:00,49.0,36.5,29.80,North,355,6.0,13.0,62,0.00,,,0.00,297,Wunderground v.1.15,2013-04-19 23:51:00,
2013-04-19 17:56:00,49.3,36.8,29.80,North,9,8.0,13.0,62,0.00,,,0.00,299,Wunderground v.1.15,2013-04-19 23:56:00,
2013-04-19 18:01:00,49.7,37.2,29.79,North,355,10.0,10.0,62,0.00,,,0.00,244,Wunderground v.1.15,2013-04-20 00:01:00,
2013-04-19 18:06:00,49.7,36.4,29.79,North,5,4.0,12.0,60,0.00,,,0.00,153,Wunderground v.1.15,2013-04-20 00:06:00,
2013-04-19 18:11:00,49.0,35.3,29.79,North,360,11.0,12.0,59,0.00,,,0.00,116,Wunderground v.1.15,2013-04-20 00:11:00,
2013-04-19 18:16:00,48.6,34.9,29.80,North,349,6.0,14.0,59,0.00,,,0.00,97,Wunderground v.1.15,2013-04-20 00:16:00,
2013-04-19 18:21:00,48.1,34.9,29.80,NW,321,10.0,14.0,60,0.00,,,0.00,100,Wunderground v.1.15,2013-04-20 00:21:00,
2013-04-19 18:26:00,48.0,35.2,29.80,NW,326,6.0,14.0,61,0.00,,,0.00,114,Wunderground v.1.15,2013-04-20 00:26:00,
2013-04-19 18:32:00,48.0,34.8,29.79,NE,34,8.0,17.0,60,0.00,,,0.00,105,Wunderground v.1.15,2013-04-20 00:32:00,
2013-04-19 18:37:00,47.7,34.5,29.79,NNW,342,10.0,19.0,60,0.00,,,0.00,109,Wunderground v.1.15,2013-04-20 00:37:00,
2013-04-19 18:42:00,47.4,34.6,29.79,NNW,337,12.0,16.0,61,0.00,,,0.00,88,Wunderground v.1.15,2013-04-20 00:42:00,
2013-04-19 18:47:00,46.9,35.0,29.80,NNW,333,9.0,21.0,63,0.00,,,0.00,72,Wunderground v.1.15,2013-04-20 00:47:00,
2013-04-19 18:52:00,46.4,35.3,29.80,NW,325,9.0,17.0,65,0.00,,,0.00,72,Wunderground v.1.15,2013-04-20 00:52:00,
2013-04-19 18:57:00,45.7,35.4,29.80,NNW,348,12.0,19.0,67,0.00,,,0.00,81,Wunderground v.1.15,2013-04-20 00:57:00,
2013-04-19 19:02:00,45.3,35.7,29.80,NNW,340,11.0,16.0,69,0.00,,,0.00,88,Wunderground v.1.15,2013-04-20 01:02:00,
2013-04-19 19:07:00,45.3,36.1,29.80,NNW,332,10.0,16.0,70,0.00,,,0.00,88,Wunderground v.1.15,2013-04-20 01:07:00,
2013-04-19 19:12:00,45.4,35.8,29.80,NNW,338,11.0,14.0,69,0.00,,,0.00,79,Wunderground v.1.15,2013-04-20 01:12:00,
2013-04-19 19:17:00,45.5,35.5,29.80,NNW,337,10.0,14.0,68,0.00,,,0.00,69,Wunderground v.1.15,2013-04-20 01:17:00,
2013-04-19 19:22:00,45.6,35.6,29.80,NNW,336,9.0,12.0,68,0.00,,,0.00,58,Wunderground v.1.15,2013-04-20 01:22:00,
2013-04-19 19:27:00,45.5,35.5,29.80,NNW,331,11.0,14.0,68,0.00,,,0.00,54,Wunderground v.1.15,2013-04-20 01:27:00,
2013-04-19 19:32:00,45.2,34.9,29.80,NNW,340,10.0,13.0,67,0.00,,,0.00,44,Wunderground v.1.15,2013-04-20 01:32:00,
2013-04-19 19:37:00,45.0,35.1,29.80,NNW,341,3.0,13.0,68,0.00,,,0.00,42,Wunderground v.1.15,2013-04-20 01:37:00,
2013-04-19 19:42:00,44.9,35.0,29.80,North,355,8.0,10.0,68,0.00,,,0.00,28,Wunderground v.1.15,2013-04-20 01:42:00,
2013-04-19 19:47:00,44.8,35.2,29.80,NNW,333,8.0,10.0,69,0.00,,,0.00,21,Wunderground v.1.15,2013-04-20 01:47:00,
2013-04-19 19:52:00,44.7,35.1,29.80,NNW,331,5.0,15.0,69,0.00,,,0.00,21,Wunderground v.1.15,2013-04-20 01:52:00,
2013-04-19 19:57:00,44.6,35.1,29.80,NNW,336,8.0,15.0,69,0.00,,,0.00,14,Wunderground v.1.15,2013-04-20 01:57:00,
2013-04-19 20:02:00,44.4,34.9,29.80,North,351,5.0,11.0,69,0.00,,,0.00,11,Wunderground v.1.15,2013-04-20 02:02:00,
2013-04-19 20:07:00,44.2,35.0,29.80,NNW,348,2.0,11.0,70,0.00,,,0.00,9,Wunderground v.1.15,2013-04-20 02:07:00,
2013-04-19 20:12:00,44.0,34.8,29.80,NNW,333,4.0,9.0,70,0.00,,,0.00,9,Wunderground v.1.15,2013-04-20 02:12:00,
2013-04-19 20:17:00,44.0,35.2,29.81,North,9,5.0,11.0,71,0.00,,,0.00,5,Wunderground v.1.15,2013-04-20 02:17:00,
2013-04-19 20:22:00,43.9,35.1,29.81,NNE,15,2.0,7.0,71,0.00,,,0.00,0,Wunderground v.1.15,2013-04-20 02:22:00,
2013-04-19 20:27:00,43.8,35.4,29.81,NNE,17,2.0,10.0,72,0.00,,,0.00,0,Wunderground v.1.15,2013-04-20 02:27:00,
2013-04-19 20:32:00,43.6,35.2,29.81,NNE,12,2.0,8.0,72,0.00,,,0.00,0,Wunderground v.1.15,2013-04-20 02:32:00,
2013-04-19 20:37:00,43.5,35.4,29.81,NNE,17,7.0,8.0,73,0.00,,,0.00,0,Wunderground v.1.15,2013-04-20 02:37:00,
2013-04-19 20:42:00,43.2,35.5,29.81,NNE,28,4.0,5.0,74,0.00,,,0.00,0,Wunderground v.1.15,2013-04-20 02:42:00,
2013-04-19 20:47:00,43.0,35.6,29.82,North,9,5.0,7.0,75,0.00,,,0.00,0,Wunderground v.1.15,2013-04-20 02:47:00,
2013-04-19 20:52:00,42.9,35.9,29.82,North,9,3.0,7.0,76,0.00,,,0.00,0,Wunderground v.1.15,2013-04-20 02:52:00,
2013-04-19 20:57:00,42.7,35.7,29.82,North,9,2.0,7.0,76,0.00,,,0.00,0,Wunderground v.1.15,2013-04-20 02:57:00,
2013-04-19 21:02:00,42.5,35.8,29.82,North,9,4.0,4.0,77,0.00,,,0.00,0,Wunderground v.1.15,2013-04-20 03:02:00,
2013-04-19 21:07:00,42.4,35.7,29.82,North,9,0.0,4.0,77,0.00,,,0.00,0,Wunderground v.1.15,2013-04-20 03:07:00,
2013-04-19 21:12:00,42.4,35.7,29.82,North,9,2.0,4.0,77,0.00,,,0.00,0,Wunderground v.1.15,2013-04-20 03:12:00,
2013-04-19 21:17:00,42.3,35.6,29.83,North,11,3.0,5.0,77,0.00,,,0.00,0,Wunderground v.1.15,2013-04-20 03:17:00,
2013-04-19 21:22:00,42.2,35.5,29.83,North,11,1.0,4.0,77,0.00,,,0.00,0,Wunderground v.1.15,2013-04-20 03:22:00,
2013-04-19 21:27:00,42.2,35.5,29.83,NNE,12,2.0,5.0,77,0.00,,,0.00,0,Wunderground v.1.15,2013-04-20 03:27:00,
2013-04-19 21:33:00,42.0,35.0,29.83,NNE,23,2.0,6.0,76,0.00,,,0.00,0,Wunderground v.1.15,2013-04-20 03:33:00,
2013-04-19 21:38:00,42.0,35.0,29.83,NNE,24,0.0,6.0,76,0.00,,,0.00,0,Wunderground v.1.15,2013-04-20 03:38:00,
2013-04-19 21:43:00,42.1,35.1,29.83,NNE,24,0.0,5.0,76,0.00,,,0.00,0,Wunderground v.1.15,2013-04-20 03:43:00,
2013-04-19 21:48:00,42.1,34.7,29.83,NNE,26,4.0,5.0,75,0.00,,,0.00,0,Wunderground v.1.15,2013-04-20 03:48:00,
2013-04-19 21:53:00,42.1,34.7,29.83,NNE,26,0.0,4.0,75,0.00,,,0.00,0,Wunderground v.1.15,2013-04-20 03:53:00,
2013-04-19 21:58:00,42.1,34.7,29.83,NNE,27,0.0,4.0,75,0.00,,,0.00,0,Wunderground v.1.15,2013-04-20 03:58:00,
2013-04-19 22:01:00,42.1,34.7,29.83,NNE,27,0.0,1.0,75,0.00,,,0.00,0,Wunderground v.1.15,2013-04-20 04:01:00,
2013-04-19 22:03:00,42.0,34.6,29.83,NNE,26,0.0,1.0,75,0.00,,,0.00,0,Wunderground v.1.15,2013-04-20 04:03:00,
2013-04-19 22:08:00,42.0,34.3,29.83,NNE,26,0.0,1.0,74,0.00,,,0.00,0,Wunderground v.1.15,2013-04-20 04:08:00,
2013-04-19 22:13:00,41.9,34.2,29.83,NNE,26,0.0,4.0,74,0.00,,,0.00,0,Wunderground v.1.15,2013-04-20 04:13:00,
2013-04-19 22:18:00,41.7,34.0,29.83,NNE,26,1.0,4.0,74,0.00,,,0.00,0,Wunderground v.1.15,2013-04-20 04:18:00,
2013-04-19 22:23:00,41.5,34.2,29.83,NNE,27,2.0,3.0,75,0.00,,,0.00,0,Wunderground v.1.15,2013-04-20 04:23:00,
2013-04-19 22:28:00,41.4,34.1,29.83,NNE,26,2.0,4.0,75,0.00,,,0.00,0,Wunderground v.1.15,2013-04-20 04:28:00,
2013-04-19 22:33:00,41.3,34.0,29.83,NNE,26,2.0,4.0,75,0.00,,,0.00,0,Wunderground v.1.15,2013-04-20 04:33:00,
2013-04-19 22:38:00,41.2,34.2,29.83,NNE,26,0.0,4.0,76,0.00,,,0.00,0,Wunderground v.1.15,2013-04-20 04:38:00,
2013-04-19 22:43:00,41.1,34.1,29.83,NNE,26,4.0,4.0,76,0.00,,,0.00,0,Wunderground v.1.15,2013-04-20 04:43:00,
2013-04-19 22:48:00,41.1,34.1,29.84,NNE,25,2.0,4.0,76,0.00,,,0.00,0,Wunderground v.1.15,2013-04-20 04:48:00,
2013-04-19 22:53:00,41.1,34.1,29.84,NNE,20,2.0,4.0,76,0.00,,,0.00,0,Wunderground v.1.15,2013-04-20 04:53:00,
2013-04-19 22:58:00,41.1,34.1,29.84,NNE,21,1.0,4.0,76,0.00,,,0.00,0,Wunderground v.1.15,2013-04-20 04:58:00,
2013-04-19 23:03:00,41.1,34.1,29.84,NNE,20,1.0,2.0,76,0.00,,,0.00,0,Wunderground v.1.15,2013-04-20 05:03:00,
2013-04-19 23:08:00,41.0,34.3,29.84,NNE,19,2.0,3.0,77,0.00,,,0.00,0,Wunderground v.1.15,2013-04-20 05:08:00,
2013-04-19 23:13:00,41.1,34.4,29.84,NNE,20,2.0,4.0,77,0.00,,,0.00,0,Wunderground v.1.15,2013-04-20 05:13:00,
2013-04-19 23:18:00,41.1,34.4,29.84,NNE,13,2.0,5.0,77,0.00,,,0.00,0,Wunderground v.1.15,2013-04-20 05:18:00,
2013-04-19 23:23:00,41.3,34.6,29.84,NNE,13,3.0,3.0,77,0.00,,,0.00,0,Wunderground v.1.15,2013-04-20 05:23:00,
2013-04-19 23:28:00,41.2,34.5,29.84,NNE,13,0.0,3.0,77,0.00,,,0.00,0,Wunderground v.1.15,2013-04-20 05:28:00,
2013-04-19 23:33:00,41.1,34.4,29.84,NNE,13,0.0,2.0,77,0.00,,,0.00,0,Wunderground v.1.15,2013-04-20 05:33:00,
2013-04-19 23:38:00,41.1,34.4,29.84,NNE,13,3.0,3.0,77,0.00,,,0.00,0,Wunderground v.1.15,2013-04-20 05:38:00,
2013-04-19 23:43:00,41.1,34.4,29.84,NNE,13,0.0,2.0,77,0.00,,,0.00,0,Wunderground v.1.15,2013-04-20 05:43:00,
2013-04-19 23:48:00,41.1,34.8,29.84,NNE,13,2.0,2.0,78,0.00,,,0.00,0,Wunderground v.1.15,2013-04-20 05:48:00,
2013-04-19 23:53:00,41.1,34.8,29.84,NNE,13,0.0,2.0,78,0.00,,,0.00,0,Wunderground v.1.15,2013-04-20 05:53:00,
2013-04-19 23:58:00,41.1,34.4,29.84,NNE,13,2.0,3.0,77,0.00,,,0.00,0,Wunderground v.1.15,2013-04-20 05:58:00,